Time,TemperatureF,DewpointF,PressureIn,WindDirection,WindDirectionDegrees,WindSpeedMPH,WindSpeedGustMPH,Humidity,HourlyPrecipIn,Conditions,Clouds,dailyrainin,SoftwareType,DateUTC
2013-03-10 00:00:00,31.7,19.8,29.85,SW,225,0.0,0.0,61,0.00,,,0.00,WUHU216HW,2013-03-10 05:00:00,
2013-03-10 00:05:00,31.7,19.8,29.85,SW,225,0.0,0.0,61,0.00,,,0.00,WUHU216HW,2013-03-10 05:05:00,
2013-03-10 00:30:00,31.7,20.2,29.84,SSW,203,0.0,0.0,62,0.00,,,0.00,WUHU216HW,2013-03-10 05:30:00,
2013-03-10 00:35:00,31.7,20.2,29.84,SSW,203,0.0,0.0,62,0.00,,,0.00,WUHU216HW,2013-03-10 05:35:00,
2013-03-10 01:00:00,31.0,20.2,29.84,SSW,203,0.0,0.0,64,0.00,,,0.00,WUHU216HW,2013-03-10 06:00:00,
2013-03-10 01:05:00,31.0,20.2,29.84,SSW,203,0.0,0.0,64,0.00,,,0.00,WUHU216HW,2013-03-10 06:05:00,
2013-03-10 01:30:00,31.1,20.7,29.84,SSW,203,0.0,0.0,65,0.00,,,0.00,WUHU216HW,2013-03-10 06:30:00,
2013-03-10 01:35:00,31.1,20.7,29.84,SSW,203,0.0,0.0,65,0.00,,,0.00,WUHU216HW,2013-03-10 06:35:00,
2013-03-10 03:00:00,30.6,20.5,29.84,SSW,203,0.0,0.0,66,0.00,,,0.00,WUHU216HW,2013-03-10 07:00:00,
2013-03-10 03:05:00,30.6,20.5,29.84,SSW,203,0.0,0.0,66,0.00,,,0.00,WUHU216HW,2013-03-10 07:05:00,
2013-03-10 03:30:00,29.9,19.8,29.82,SSW,203,0.0,0.0,66,0.00,,,0.00,WUHU216HW,2013-03-10 07:30:00,
2013-03-10 03:35:00,29.9,19.8,29.82,SSW,203,0.0,0.0,66,0.00,,,0.00,WUHU216HW,2013-03-10 07:35:00,
2013-03-10 04:00:00,29.0,19.4,29.81,SSW,203,0.0,0.0,67,0.00,,,0.00,WUHU216HW,2013-03-10 08:00:00,
2013-03-10 04:05:00,29.0,19.4,29.81,SSW,203,0.0,0.0,67,0.00,,,0.00,WUHU216HW,2013-03-10 08:05:00,
2013-03-10 04:30:00,28.8,19.6,29.81,SSW,203,0.4,0.4,68,0.00,,,0.00,WUHU216HW,2013-03-10 08:30:00,
2013-03-10 04:35:00,28.8,19.6,29.81,SSW,203,0.4,0.4,68,0.00,,,0.00,WUHU216HW,2013-03-10 08:35:00,
2013-03-10 04:59:00,28.1,19.6,29.81,SW,225,0.0,0.0,70,0.00,,,0.00,WUHU216HW,2013-03-10 08:59:00,
2013-03-10 05:05:00,28.1,19.6,29.81,SW,225,0.0,0.0,70,0.00,,,0.00,WUHU216HW,2013-03-10 09:05:00,
2013-03-10 05:30:00,28.1,19.9,29.82,SSW,203,0.0,0.0,71,0.00,,,0.00,WUHU216HW,2013-03-10 09:30:00,
2013-03-10 05:35:00,28.1,19.9,29.82,SSW,203,0.0,0.0,71,0.00,,,0.00,WUHU216HW,2013-03-10 09:35:00,
2013-03-10 05:59:00,27.9,19.7,29.83,SW,225,0.0,0.0,71,0.00,,,0.00,WUHU216HW,2013-03-10 09:59:00,
2013-03-10 06:05:00,27.9,19.7,29.83,SW,225,0.0,0.0,71,0.00,,,0.00,WUHU216HW,2013-03-10 10:05:00,
2013-03-10 06:30:00,27.0,19.2,29.83,SSW,203,0.4,0.4,72,0.00,,,0.00,WUHU216HW,2013-03-10 10:30:00,
2013-03-10 06:35:00,27.0,19.2,29.83,SSW,203,0.4,0.4,72,0.00,,,0.00,WUHU216HW,2013-03-10 10:35:00,
2013-03-10 06:59:00,26.8,19.0,29.82,SSW,203,0.0,0.0,72,0.00,,,0.00,WUHU216HW,2013-03-10 10:59:00,
2013-03-10 07:05:00,26.8,19.0,29.82,SSW,203,0.0,0.0,72,0.00,,,0.00,WUHU216HW,2013-03-10 11:05:00,
2013-03-10 07:30:00,26.6,19.1,29.81,ESE,113,0.0,0.0,73,0.00,,,0.00,WUHU216HW,2013-03-10 11:30:00,
2013-03-10 07:35:00,26.6,19.1,29.81,ESE,113,0.0,0.0,73,0.00,,,0.00,WUHU216HW,2013-03-10 11:35:00,
2013-03-10 07:59:00,27.5,20.6,29.83,West,270,0.0,0.0,75,0.00,,,0.00,WUHU216HW,2013-03-10 11:59:00,
2013-03-10 08:05:00,27.5,20.6,29.83,West,270,0.0,0.0,75,0.00,,,0.00,WUHU216HW,2013-03-10 12:05:00,
2013-03-10 08:30:00,29.7,23.1,29.84,SE,135,0.0,0.0,76,0.00,,,0.00,WUHU216HW,2013-03-10 12:30:00,
2013-03-10 08:35:00,29.7,23.1,29.84,SE,135,0.0,0.0,76,0.00,,,0.00,WUHU216HW,2013-03-10 12:35:00,
2013-03-10 08:59:00,31.3,24.7,29.85,SE,135,1.1,1.1,76,0.00,,,0.00,WUHU216HW,2013-03-10 12:59:00,
2013-03-10 09:05:00,31.3,24.7,29.85,SE,135,1.1,1.1,76,0.00,,,0.00,WUHU216HW,2013-03-10 13:05:00,
2013-03-10 09:30:00,35.8,28.0,29.85,SE,135,2.0,2.0,73,0.00,,,0.00,WUHU216HW,2013-03-10 13:30:00,
2013-03-10 09:35:00,35.8,28.0,29.85,SE,135,2.0,2.0,73,0.00,,,0.00,WUHU216HW,2013-03-10 13:35:00,
2013-03-10 09:59:00,40.7,30.5,29.86,SSW,203,1.6,1.6,67,0.00,,,0.00,WUHU216HW,2013-03-10 13:59:00,
2013-03-10 10:05:00,40.7,30.5,29.86,SSW,203,1.6,1.6,67,0.00,,,0.00,WUHU216HW,2013-03-10 14:05:00,
2013-03-10 10:30:00,45.2,32.1,29.85,SSE,158,0.7,0.7,60,0.00,,,0.00,WUHU216HW,2013-03-10 14:30:00,
2013-03-10 10:35:00,45.2,32.1,29.85,SSE,158,0.7,0.7,60,0.00,,,0.00,WUHU216HW,2013-03-10 14:35:00,
2013-03-10 10:59:00,50.6,34.5,29.84,SE,135,1.3,1.3,54,0.00,,,0.00,WUHU216HW,2013-03-10 14:59:00,
2013-03-10 11:05:00,50.6,34.5,29.84,SE,135,1.3,1.3,54,0.00,,,0.00,WUHU216HW,2013-03-10 15:05:00,
2013-03-10 11:30:00,55.1,35.1,29.84,ESE,113,0.9,0.9,47,0.00,,,0.00,WUHU216HW,2013-03-10 15:30:00,
2013-03-10 11:35:00,55.1,35.1,29.84,ESE,113,0.9,0.9,47,0.00,,,0.00,WUHU216HW,2013-03-10 15:35:00,
2013-03-10 11:59:00,58.9,32.5,29.83,SE,135,3.8,3.8,37,0.00,,,0.00,WUHU216HW,2013-03-10 15:59:00,
2013-03-10 12:05:00,58.9,32.5,29.83,SE,135,3.8,3.8,37,0.00,,,0.00,WUHU216HW,2013-03-10 16:05:00,
2013-03-10 12:30:00,61.6,30.5,29.82,SSW,203,6.9,6.9,31,0.00,,,0.00,WUHU216HW,2013-03-10 16:30:00,
2013-03-10 12:35:00,61.6,30.5,29.82,SSW,203,6.9,6.9,31,0.00,,,0.00,WUHU216HW,2013-03-10 16:35:00,
2013-03-10 12:59:00,62.3,31.1,29.81,SE,135,5.8,5.8,31,0.00,,,0.00,WUHU216HW,2013-03-10 16:59:00,
2013-03-10 13:04:00,62.3,31.1,29.81,SE,135,5.8,5.8,31,0.00,,,0.00,WUHU216HW,2013-03-10 17:04:00,
2013-03-10 13:30:00,64.6,31.6,29.79,South,180,4.0,4.0,29,0.00,,,0.00,WUHU216HW,2013-03-10 17:30:00,
2013-03-10 13:35:00,64.6,31.6,29.79,South,180,4.0,4.0,29,0.00,,,0.00,WUHU216HW,2013-03-10 17:35:00,
2013-03-10 14:00:00,64.8,31.8,29.78,ESE,113,8.1,8.1,29,0.00,,,0.00,WUHU216HW,2013-03-10 18:00:00,
2013-03-10 14:05:00,64.8,31.8,29.78,ESE,113,8.1,8.1,29,0.00,,,0.00,WUHU216HW,2013-03-10 18:05:00,
2013-03-10 14:30:00,64.4,31.4,29.77,ESE,113,4.7,4.7,29,0.00,,,0.00,WUHU216HW,2013-03-10 18:30:00,
2013-03-10 14:35:00,64.4,31.4,29.77,ESE,113,4.7,4.7,29,0.00,,,0.00,WUHU216HW,2013-03-10 18:35:00,
2013-03-10 15:00:00,64.4,30.4,29.76,SSE,158,5.4,5.4,28,0.00,,,0.00,WUHU216HW,2013-03-10 19:00:00,
2013-03-10 15:05:00,64.4,30.4,29.76,SSE,158,5.4,5.4,28,0.00,,,0.00,WUHU216HW,2013-03-10 19:05:00,
2013-03-10 15:30:00,65.3,31.2,29.76,SE,135,3.8,3.8,28,0.00,,,0.00,WUHU216HW,2013-03-10 19:30:00,
2013-03-10 15:35:00,65.3,31.2,29.76,SE,135,3.8,3.8,28,0.00,,,0.00,WUHU216HW,2013-03-10 19:35:00,
2013-03-10 16:00:00,66.8,30.4,29.75,SW,225,5.4,5.4,26,0.00,,,0.00,WUHU216HW,2013-03-10 20:00:00,
2013-03-10 16:05:00,66.8,30.4,29.75,SW,225,5.4,5.4,26,0.00,,,0.00,WUHU216HW,2013-03-10 20:05:00,
2013-03-10 16:30:00,67.7,31.2,29.74,ESE,113,8.1,8.1,26,0.00,,,0.00,WUHU216HW,2013-03-10 20:30:00,
2013-03-10 16:35:00,67.7,31.2,29.74,ESE,113,8.1,8.1,26,0.00,,,0.00,WUHU216HW,2013-03-10 20:35:00,
2013-03-10 16:59:00,67.0,30.6,29.74,ESE,113,6.3,6.3,26,0.00,,,0.00,WUHU216HW,2013-03-10 20:59:00,
2013-03-10 17:05:00,67.0,30.6,29.74,ESE,113,6.3,6.3,26,0.00,,,0.00,WUHU216HW,2013-03-10 21:05:00,
2013-03-10 17:30:00,65.5,30.3,29.73,SE,135,4.7,4.7,27,0.00,,,0.00,WUHU216HW,2013-03-10 21:30:00,
2013-03-10 17:35:00,65.5,30.3,29.73,SE,135,4.7,4.7,27,0.00,,,0.00,WUHU216HW,2013-03-10 21:35:00,
2013-03-10 18:00:00,64.4,30.4,29.73,SE,135,7.2,7.2,28,0.00,,,0.00,WUHU216HW,2013-03-10 22:00:00,
2013-03-10 18:05:00,64.4,30.4,29.73,SE,135,7.2,7.2,28,0.00,,,0.00,WUHU216HW,2013-03-10 22:05:00,
2013-03-10 18:30:00,62.3,28.5,29.73,SSE,158,5.4,5.4,28,0.00,,,0.00,WUHU216HW,2013-03-10 22:30:00,
2013-03-10 18:35:00,62.3,28.5,29.73,SSE,158,5.4,5.4,28,0.00,,,0.00,WUHU216HW,2013-03-10 22:35:00,
2013-03-10 19:00:00,58.7,28.1,29.73,SE,135,2.2,2.2,31,0.00,,,0.00,WUHU216HW,2013-03-10 23:00:00,
2013-03-10 19:05:00,58.7,28.1,29.73,SE,135,2.2,2.2,31,0.00,,,0.00,WUHU216HW,2013-03-10 23:05:00,
2013-03-10 19:30:00,56.9,27.9,29.75,SSE,158,2.5,2.5,33,0.00,,,0.00,WUHU216HW,2013-03-10 23:30:00,
2013-03-10 19:35:00,56.9,27.9,29.75,SSE,158,2.5,2.5,33,0.00,,,0.00,WUHU216HW,2013-03-10 23:35:00,
2013-03-10 19:59:00,55.8,26.9,29.74,SE,135,2.7,2.7,33,0.00,,,0.00,WUHU216HW,2013-03-10 23:59:00,
2013-03-10 20:04:00,55.8,26.9,29.74,SE,135,2.7,2.7,33,0.00,,,0.00,WUHU216HW,2013-03-11 00:04:00,
2013-03-10 20:30:00,54.4,27.7,29.74,SE,135,2.2,2.2,36,0.00,,,0.00,WUHU216HW,2013-03-11 00:30:00,
2013-03-10 20:35:00,54.4,27.7,29.74,SE,135,2.2,2.2,36,0.00,,,0.00,WUHU216HW,2013-03-11 00:35:00,
2013-03-10 21:00:00,52.6,27.5,29.75,SSE,158,3.4,3.4,38,0.00,,,0.00,WUHU216HW,2013-03-11 01:00:00,
2013-03-10 21:05:00,52.6,27.5,29.75,SSE,158,3.4,3.4,38,0.00,,,0.00,WUHU216HW,2013-03-11 01:05:00,
2013-03-10 21:30:00,51.5,26.6,29.74,SE,135,0.9,0.9,38,0.00,,,0.00,WUHU216HW,2013-03-11 01:30:00,
2013-03-10 21:35:00,51.5,26.6,29.74,SE,135,0.9,0.9,38,0.00,,,0.00,WUHU216HW,2013-03-11 01:35:00,
2013-03-10 21:59:00,50.8,26.7,29.75,SE,135,2.0,2.0,39,0.00,,,0.00,WUHU216HW,2013-03-11 01:59:00,
2013-03-10 22:04:00,50.8,26.7,29.75,SE,135,2.0,2.0,39,0.00,,,0.00,WUHU216HW,2013-03-11 02:04:00,
2013-03-10 22:30:00,49.3,25.3,29.75,SE,135,1.3,1.3,39,0.00,,,0.00,WUHU216HW,2013-03-11 02:30:00,
2013-03-10 22:35:00,49.3,25.3,29.75,SE,135,1.3,1.3,39,0.00,,,0.00,WUHU216HW,2013-03-11 02:35:00,
2013-03-10 22:59:00,49.1,25.1,29.74,SE,135,3.4,3.4,39,0.00,,,0.00,WUHU216HW,2013-03-11 02:59:00,
2013-03-10 23:04:00,49.1,25.1,29.74,SE,135,3.4,3.4,39,0.00,,,0.00,WUHU216HW,2013-03-11 03:04:00,
2013-03-10 23:30:00,50.2,25.5,29.74,SE,135,3.4,3.4,38,0.00,,,0.00,WUHU216HW,2013-03-11 03:30:00,
2013-03-10 23:35:00,50.2,25.5,29.74,SE,135,3.4,3.4,38,0.00,,,0.00,WUHU216HW,2013-03-11 03:35:00,
2013-03-10 23:59:00,49.5,24.9,29.73,SE,135,3.1,3.1,38,0.00,,,0.00,WUHU216HW,2013-03-11 03:59:00,